User: anonymous   Login
Location: Unspecified
(0.0000°N, 0.0000°E)
Time: 22:44:42
(UTC+00:00)
Language:

STARLINK-34125 - Orbit

View from above orbital plane
View from above orbital plane
View from above satellite
View from above satellite

Ground track
Ground track

The orbit is defined by the following mean orbital elements,

1 63901U          26145.36157808 +.00000000 +00000-0 +60857-3 0 00007
2 63901  43.0000 103.2252 0001716 268.3999  91.6656 15.27594232    07
Epoch (UTC): 25 May 2026 08:40:40
Eccentricity: 0.0001716
inclination: 43.0000°
perigee height: 482 km
apogee height: 484 km
right ascension of ascending node: 103.2252°
argument of perigee: 268.3999°
revolutions per day: 15.27594232
mean anomaly at epoch: 91.6656°

The dashed part of the orbit path shows where the satellite is in the earth's shadow,  

DLR